• In Germany
  • List of Countries
  • For 7 days
  • Water Temperature
  • Satellite Maps
  • Weather Map
  • Weather Widgets
  • user-avatar
    Login

    Hourly Weather Solden

    Today, 30 April, Sunday

    Time Temperature Precipitation Wind Pressure Humidity
    00:00 -6°C° 0 mm 1 mps 577 mmHg 96%
    01:00 -6°C° 0 mm 1 mps 578 mmHg 96%
    02:00 -6°C° 0 mm 1 mps 578 mmHg 96%
    03:00 -6°C° 0 mm 1 mps 577 mmHg 96%
    04:00 -6°C° 0 mm 1 mps 577 mmHg 96%
    05:00 -4°C° 0 mm 1 mps 578 mmHg 93%
    06:00 -3°C° 0 mm 1 mps 579 mmHg 89%
    07:00 -1°C° 0 mm 1 mps 579 mmHg 83%
    08:00 0°C° 0 mm 1 mps 580 mmHg 80%
    09:00 +1°C° 0 mm 2 mps 580 mmHg 78%
    10:00 +2°C° 0 mm 2 mps 580 mmHg 75%
    11:00 +2°C° 0 mm 2 mps 580 mmHg 74%
    12:00 +3°C° 0 mm 2 mps 580 mmHg 73%
    13:00 +3°C° 0 mm 2 mps 580 mmHg 72%
    14:00 +3°C° 0 mm 2 mps 579 mmHg 74%
    15:00 +3°C° 0 mm 2 mps 579 mmHg 76%
    16:00 +3°C° 0 mm 2 mps 579 mmHg 77%
    17:00 +2°C° 0 mm 2 mps 578 mmHg 82%
    18:00 -1°C° 0 mm 2 mps 578 mmHg 87%
    19:00 -2°C° 0 mm 2 mps 577 mmHg 92%
    20:00 -3°C° 0 mm 2 mps 577 mmHg 93%
    21:00 -4°C° 0 mm 2 mps 577 mmHg 95%
    22:00 -5°C° 0 mm 2 mps 577 mmHg 96%
    23:00 -5°C° 0 mm 2 mps 576 mmHg 96%

    Tomorrow, 1 May, Monday

    Time Temperature Precipitation Wind Pressure Humidity
    00:00 -5°C° 0 mm 2 mps 576 mmHg 96%
    01:00 -5°C° 0 mm 2 mps 576 mmHg 96%
    02:00 -5°C° 0 mm 2 mps 575 mmHg 96%
    03:00 -6°C° 0 mm 2 mps 575 mmHg 96%
    04:00 -6°C° 0 mm 2 mps 575 mmHg 96%
    05:00 -5°C° 0 mm 2 mps 575 mmHg 92%
    06:00 -2°C° 0 mm 1 mps 576 mmHg 89%
    07:00 -1°C° 0 mm 1 mps 577 mmHg 86%
    08:00 -2°C° 0.1 mm 2 mps 577 mmHg 81%
    09:00 +1°C° 0.1 mm 2 mps 578 mmHg 77%
    10:00 +2°C° 0.1 mm 2 mps 578 mmHg 73%
    11:00 +1°C° 1.2 mm 2 mps 578 mmHg 78%
    12:00 +1°C° 1.2 mm 2 mps 578 mmHg 83%
    13:00 -1°C° 1.2 mm 2 mps 578 mmHg 88%
    14:00 -1°C° 1.5 mm 2 mps 578 mmHg 90%
    15:00 0°C° 1.5 mm 1 mps 578 mmHg 91%
    16:00 0°C° 1.5 mm 1 mps 578 mmHg 93%
    17:00 -1°C° 1.4 mm 1 mps 578 mmHg 94%
    18:00 -1°C° 1.4 mm 1 mps 578 mmHg 95%
    19:00 -2°C° 1.4 mm 1 mps 578 mmHg 97%
    20:00 -3°C° 1 mm 1 mps 578 mmHg 97%
    21:00 -3°C° 1 mm 1 mps 578 mmHg 96%
    22:00 -4°C° 1 mm 1 mps 578 mmHg 96%
    23:00 -4°C° 0.5 mm 1 mps 578 mmHg 96%

    Day after tomorrow, 2 May, Tuesday

    Time Temperature Precipitation Wind Pressure Humidity
    00:00 -4°C° 0.5 mm 1 mps 578 mmHg 95%
    01:00 -6°C° 0.5 mm 1 mps 578 mmHg 95%
    02:00 -7°C° 0.1 mm 1 mps 578 mmHg 95%
    03:00 -8°C° 0.1 mm 1 mps 577 mmHg 95%
    04:00 -10°C° 0.1 mm 1 mps 576 mmHg 94%
    05:00 -8°C° 0 mm 1 mps 577 mmHg 93%
    06:00 -6°C° 0 mm 1 mps 578 mmHg 91%
    07:00 -3°C° 0 mm 1 mps 579 mmHg 89%
    08:00 -2°C° 0 mm 1 mps 580 mmHg 88%
    09:00 0°C° 0 mm 1 mps 581 mmHg 86%
    10:00 +1°C° 0 mm 1 mps 581 mmHg 84%
    11:00 +2°C° 0 mm 1 mps 581 mmHg 84%
    12:00 +1°C° 0 mm 2 mps 581 mmHg 83%
    13:00 +2°C° 0 mm 2 mps 581 mmHg 83%
    14:00 +2°C° 0.1 mm 2 mps 581 mmHg 84%
    15:00 +2°C° 0.1 mm 2 mps 581 mmHg 85%
    16:00 +2°C° 0.1 mm 2 mps 581 mmHg 85%
    17:00 +1°C° 0.1 mm 2 mps 581 mmHg 88%
    18:00 +1°C° 0.1 mm 1 mps 580 mmHg 92%
    19:00 0°C° 0.1 mm 1 mps 580 mmHg 95%
    20:00 -1°C° 0.1 mm 1 mps 580 mmHg 95%
    21:00 -1°C° 0.1 mm 1 mps 580 mmHg 96%
    22:00 -2°C° 0.1 mm 1 mps 580 mmHg 97%
    23:00 -2°C° 0.2 mm 1 mps 580 mmHg 97%

    3 May, Wednesday

    Time Temperature Precipitation Wind Pressure Humidity
    00:00 -2°C° 0.2 mm 1 mps 580 mmHg 97%
    01:00 -2°C° 0.2 mm 1 mps 579 mmHg 97%
    02:00 -2°C° 0.4 mm 1 mps 579 mmHg 97%
    03:00 -2°C° 0.4 mm 1 mps 579 mmHg 97%
    04:00 -2°C° 0.4 mm 1 mps 579 mmHg 96%
    05:00 -2°C° 0.6 mm 1 mps 579 mmHg 95%
    06:00 -1°C° 0.6 mm 1 mps 580 mmHg 94%
    07:00 -1°C° 0.6 mm 1 mps 580 mmHg 93%
    08:00 0°C° 0.5 mm 1 mps 580 mmHg 91%
    09:00 +1°C° 0.5 mm 1 mps 581 mmHg 89%
    10:00 +2°C° 0.5 mm 1 mps 581 mmHg 87%
    11:00 +2°C° 0.5 mm 1 mps 581 mmHg 86%
    12:00 +2°C° 0.5 mm 2 mps 581 mmHg 85%
    13:00 +2°C° 0.5 mm 2 mps 581 mmHg 84%
    14:00 +2°C° 0.8 mm 2 mps 581 mmHg 85%
    15:00 +2°C° 0.8 mm 2 mps 581 mmHg 86%
    16:00 +2°C° 0.8 mm 2 mps 580 mmHg 86%
    17:00 +2°C° 0.9 mm 1 mps 580 mmHg 89%
    18:00 +1°C° 0.9 mm 1 mps 580 mmHg 92%
    19:00 0°C° 0.9 mm 1 mps 579 mmHg 95%
    20:00 -2°C° 0.6 mm 0 mps 579 mmHg 96%
    21:00 -2°C° 0.6 mm 0 mps 579 mmHg 96%
    22:00 -3°C° 0.6 mm 0 mps 579 mmHg 97%
    23:00 -3°C° 0.4 mm 0 mps 578 mmHg 97%

    4 May, Thursday

    Time Temperature Precipitation Wind Pressure Humidity
    00:00 -4°C° 0.4 mm 0 mps 578 mmHg 96%
    01:00 -4°C° 0.4 mm 0 mps 578 mmHg 96%
    02:00 -4°C° 0.2 mm 0 mps 577 mmHg 96%
    03:00 -5°C° 0.2 mm 0 mps 577 mmHg 95%
    04:00 -4°C° 0.2 mm 1 mps 577 mmHg 95%
    05:00 -4°C° 0.1 mm 0 mps 577 mmHg 92%
    06:00 -3°C° 0.1 mm 0 mps 578 mmHg 90%
    07:00 -1°C° 0.1 mm 0 mps 579 mmHg 87%
    08:00 0°C° 0.1 mm 0 mps 579 mmHg 84%
    09:00 +1°C° 0.1 mm 0 mps 580 mmHg 82%
    10:00 +3°C° 0.1 mm 1 mps 580 mmHg 79%
    11:00 +3°C° 0.4 mm 1 mps 580 mmHg 79%
    12:00 +4°C° 0.4 mm 1 mps 580 mmHg 78%
    13:00 +4°C° 0.4 mm 1 mps 580 mmHg 78%
    14:00 +4°C° 0.8 mm 1 mps 579 mmHg 79%
    15:00 +4°C° 0.8 mm 1 mps 579 mmHg 79%
    16:00 +4°C° 0.8 mm 1 mps 579 mmHg 80%
    17:00 +3°C° 1 mm 1 mps 579 mmHg 84%
    18:00 +2°C° 1 mm 1 mps 578 mmHg 88%
    19:00 +1°C° 1 mm 1 mps 578 mmHg 92%
    20:00 0°C° 0.9 mm 1 mps 578 mmHg 94%
    21:00 -1°C° 0.9 mm 1 mps 578 mmHg 95%
    22:00 -1°C° 0.9 mm 1 mps 578 mmHg 96%
    23:00 -2°C° 0.4 mm 1 mps 578 mmHg 96%

    5 May, Friday

    Time Temperature Precipitation Wind Pressure Humidity
    00:00 -2°C° 0.4 mm 1 mps 578 mmHg 95%
    01:00 -2°C° 0.4 mm 1 mps 578 mmHg 95%
    02:00 -3°C° 0.1 mm 1 mps 578 mmHg 94%
    03:00 -3°C° 0.1 mm 1 mps 578 mmHg 93%
    04:00 -6°C° 0.1 mm 2 mps 578 mmHg 93%
    05:00 -4°C° 0.1 mm 2 mps 579 mmHg 91%
    06:00 -1°C° 0.1 mm 1 mps 579 mmHg 89%
    07:00 0°C° 0.1 mm 1 mps 580 mmHg 87%
    08:00 +1°C° 0 mm 1 mps 581 mmHg 83%
    09:00 +3°C° 0 mm 1 mps 581 mmHg 79%
    10:00 +4°C° 0 mm 1 mps 582 mmHg 75%
    11:00 +5°C° 0 mm 1 mps 582 mmHg 74%
    12:00 +6°C° 0 mm 1 mps 582 mmHg 72%
    13:00 +7°C° 0 mm 1 mps 583 mmHg 71%
    14:00 +7°C° 0.1 mm 1 mps 582 mmHg 71%
    15:00 +6°C° 0.1 mm 1 mps 582 mmHg 71%
    16:00 +6°C° 0.1 mm 1 mps 582 mmHg 72%
    17:00 +5°C° 0 mm 1 mps 581 mmHg 77%
    18:00 +3°C° 0 mm 1 mps 580 mmHg 83%
    19:00 0°C° 0 mm 0 mps 579 mmHg 89%
    20:00 -1°C° 0 mm 1 mps 579 mmHg 89%
    21:00 -2°C° 0 mm 1 mps 579 mmHg 90%
    22:00 -3°C° 0 mm 1 mps 578 mmHg 91%
    23:00 -4°C° 0 mm 1 mps 578 mmHg 89%
    Show more